Weather in Sebinkarahisar

Turkey     40°17′18″N   38°25′14″E
temp.,
°C
wind,
m/s
gust,
m/s
humid.,
%
clouds,
%
prec.,
mm/h
press.,
hPa
HPBL,
m
24 october, sun
sun2400:00+8ne22530 0.0 102113
03:00+7ene11540 0.0 102110
06:00+6e11595 0.0 102110
09:00+10s1147100 0.0 1020222
12:00+14sw22305 0.0 1019701
15:00+16w232130 0.0 1016947
18:00+12sse112999 0.0 101710
21:00+8nne457522 0.0 102089
25 october, mon
mon2500:00+7nne2377100 0.0 102281
03:00+6nne3581100 0.0 1023476
06:00+5n2387100 0.3 1025535
09:00+5n3478100 0.4 1026635
12:00+6n446180 0.1 10261133
15:00+6n435520 0.1 1025972
18:00+3n34634 0.0 1028270
21:00+1nne22681 0.0 102958
26 october, tue
tue2600:000nne23732 0.0 103049
03:00−1ne33701 0.0 103047
06:00−2ne22690 0.0 103023
09:00+1sse11530 0.0 1029376
12:00+6sw12340 0.0 1025705
15:00+9sw21280 0.0 1021693
18:00+5nw11450 0.0 102210
21:00+4nne11490 0.0 102310
27 october, wed
wed2700:00+3ene11460 0.0 102310
03:00+3ne22400 0.0 102311
06:00+2ne22350 0.0 102412
09:00+7ene11260 0.0 1023195
12:00+12sw11190 0.0 1021615
15:00+14w11160 0.0 1018770
18:00+9n11240 0.0 101910
21:00+8ene22240 0.0 102010
28 october, thu
thu2800:00+7ene22240 0.0 102010
03:00+6ene22260 0.0 102111
06:00+5ene22280 0.0 102111
09:00+10ene01220 0.0 1021145
12:00+14wsw21210 0.0 1020840
15:00+15w11200 0.0 10181431
18:00+10n22360 0.0 101917
21:00+8ne32540 0.0 102120